Wind_Speed
48 47 47 47 47 46 46 46 46 45 44 44 44 44 44 44 44 43 42 41 41 41 42 42 43 44 45 45 46 47 48 49 48 47 46 45 44 44
49 48 48 47 46 47 47 47 47 47 46 45 45 45 44 43 43 43 42 42 43 43 43 44 45 45 46 47 48 49 49 49 48 46 45 44 44 44
51 50 49 49 48 47 47 48 48 47 47 45 45 45 44 44 43 43 43 43 44 45 45 46 46 47 48 48 49 49 49 47 46 46 45 45 44 44
51 50 50 49 49 49 49 48 48 48 47 46 46 45 45 45 45 44 45 45 46 46 47 47 47 48 48 48 49 48 47 47 46 46 46 45 45 45
50 50 49 49 49 49 49 49 48 48 48 47 46 47 46 46 46 46 46 47 47 48 48 48 49 49 49 48 48 47 47 47 46 45 45 45 45 45
51 50 50 50 50 49 49 49 49 48 48 47 47 47 47 47 47 47 47 47 48 49 49 49 50 49 49 48 48 48 48 47 46 45 45 45 45 44
51 51 51 51 51 50 50 50 49 49 49 48 48 48 48 49 49 49 49 49 48 49 49 49 50 50 49 48 48 48 47 47 46 46 45 45 45 45
51 52 51 51 51 51 51 50 50 50 50 49 49 49 50 50 50 50 51 50 49 49 49 49 49 49 49 48 48 48 47 46 46 46 45 45 45 45
52 52 51 51 50 51 51 51 50 50 50 50 50 50 50 50 50 51 51 50 50 50 49 49 49 49 48 47 48 47 46 45 45 45 45 45 45 45
52 52 52 52 51 51 51 50 50 50 49 49 49 49 49 50 50 51 51 50 50 50 49 49 48 48 47 47 48 47 45 44 44 44 44 45 46 46
52 52 52 52 52 51 50 50 49 48 48 48 49 49 49 49 49 50 50 50 50 50 49 49 48 48 47 47 47 46 45 44 44 44 45 45 46 47
50 50 50 51 50 50 50 49 49 48 48 48 48 49 49 50 50 50 50 49 49 49 48 48 48 47 45 45 46 45 44 44 44 45 45 45 45 45
49 48 49 49 49 49 50 49 49 49 49 49 49 50 49 50 50 49 48 48 48 48 48 47 46 45 45 44 44 44 44 44 44 45 44 44 44 44
47 48 48 48 48 48 48 48 48 48 48 49 49 48 48 48 47 46 46 46 46 46 46 45 43 43 42 42 42 42 43 43 43 43 43 43 43 43
45 46 46 47 47 47 46 46 47 47 47 47 47 47 46 46 46 45 45 45 45 45 44 43 42 41 42 42 41 41 40 40 41 42 42 42 42 42
44 44 45 46 45 45 45 45 45 45 45 46 45 44 44 45 44 44 44 44 44 43 42 41 40 40 40 40 40 39 39 39 40 40 41 41 41 40
43 43 43 43 43 43 43 43 43 43 44 44 43 43 43 43 43 43 42 42 40 40 39 39 39 38 38 38 38 38 38 38 39 39 39 39 38 38
42 42 42 41 42 42 42 42 41 41 41 41 40 40 41 41 40 40 39 39 38 38 37 37 37 37 37 37 37 37 37 37 37 37 37 36 35 35
40 39 39 39 40 40 41 40 39 39 39 40 40 40 39 39 38 38 37 36 37 37 36 36 36 36 36 35 35 36 36 36 36 35 35 34 33 32
38 38 37 37 37 38 38 38 38 39 39 39 39 39 39 38 38 37 36 36 36 36 35 35 35 35 34 34 34 34 34 34 34 33 33 32 31 30
36 36 36 36 36 36 37 37 37 38 38 38 38 38 38 37 36 36 35 35 35 34 34 34 34 34 33 33 32 32 32 33 32 31 30 30 28 27
35 35 35 35 36 36 36 37 37 37 37 37 37 36 35 35 35 35 34 34 33 33 32 32 32 31 31 30 30 30 31 31 31 30 29 28 26 25
34 34 34 35 35 35 36 36 35 35 35 35 35 35 34 34 34 33 33 32 32 31 30 30 29 29 28 28 28 29 29 29 29 28 26 25 24 24
Wind_Direction
269 270 271 272 273 274 275 277 279 280 281 283 284 286 287 288 288 289 289 289 290 290 291 292 293 294 295 295 296 296 297 297 297 296 296 295 294 293
268 269 270 271 273 274 275 277 279 281 281 282 284 285 286 286 287 287 287 288 289 291 291 293 294 295 296 296 296 296 297 296 296 296 296 295 294 293
268 268 269 270 272 273 275 276 278 279 280 282 283 284 284 284 285 286 287 289 290 291 293 294 295 295 296 296 296 296 296 295 295 295 295 294 294 293
268 269 269 270 271 272 274 275 276 278 279 281 282 283 283 283 284 285 286 288 290 291 293 294 295 295 296 295 296 296 295 295 294 295 295 294 294 293
267 268 268 270 271 271 273 274 276 278 279 281 282 283 283 283 284 286 288 290 291 292 293 293 294 295 295 295 295 295 295 295 295 295 294 294 293 292
267 267 268 270 272 274 274 275 276 277 279 280 281 281 282 283 284 286 287 288 290 291 292 293 294 295 295 295 295 295 295 295 294 294 294 293 292 292
268 270 272 273 274 275 275 276 276 277 278 278 279 280 281 282 284 285 286 287 289 291 292 293 295 295 295 295 295 295 296 295 294 293 293 293 293 293
270 271 273 274 274 275 275 276 276 276 276 277 278 280 280 282 283 285 286 287 289 290 291 293 294 295 295 294 294 295 296 295 294 293 292 292 292 293
270 271 271 272 272 273 274 275 275 275 275 276 278 280 281 282 283 285 287 288 290 291 291 292 293 293 294 293 294 295 296 295 294 293 292 292 292 292
270 270 270 270 271 272 273 274 274 274 276 277 278 279 281 282 284 285 287 288 289 290 291 292 292 292 292 292 294 295 295 295 295 294 293 293 292 293
270 270 269 270 271 272 272 273 274 275 276 276 277 279 281 283 284 285 286 288 289 290 290 292 292 291 291 292 293 295 295 295 295 295 294 294 293 294
269 269 269 270 270 271 272 273 273 275 275 276 278 280 282 283 284 286 287 288 290 290 290 291 291 290 289 291 292 293 294 294 295 295 295 294 295 295
269 269 268 269 270 270 272 273 274 275 276 277 279 280 282 284 285 286 287 289 290 290 291 291 289 289 290 291 292 293 294 294 295 295 295 296 296 297
270 269 269 269 269 270 272 273 273 275 276 277 278 280 281 283 283 284 286 288 289 290 291 290 290 290 291 292 293 294 295 295 295 295 297 297 298 298
270 270 270 270 270 270 270 271 272 274 276 277 277 279 279 280 282 284 286 287 288 290 290 290 290 291 293 294 295 296 296 296 296 296 297 298 298 297
270 271 271 271 271 270 270 271 272 273 275 276 277 278 278 279 280 282 284 286 287 288 289 290 291 294 295 296 296 297 297 296 296 297 297 298 298 298
270 271 271 271 272 272 271 271 272 274 275 275 276 278 279 280 282 283 284 285 285 285 286 289 292 294 295 296 297 298 298 299 299 299 299 300 300 300
270 271 271 272 272 273 273 273 273 273 273 275 276 277 279 280 281 282 283 284 284 285 287 288 290 292 294 295 296 297 299 299 300 300 301 301 301 301
271 271 272 272 272 273 273 273 273 273 274 275 276 277 279 280 281 282 283 285 285 286 288 289 290 292 293 295 296 297 298 299 300 300 302 303 303 302
271 271 271 272 273 274 274 274 274 275 275 276 277 278 279 280 281 282 283 284 285 286 288 289 290 291 292 294 296 297 299 301 301 302 303 305 305 303
272 272 271 272 273 274 275 275 276 275 275 275 277 278 279 280 280 281 283 283 283 285 287 288 290 291 291 293 296 298 299 301 303 304 304 305 305 303
271 272 272 273 274 275 275 276 276 276 276 277 277 277 278 279 279 280 281 281 281 283 285 287 289 291 292 293 295 298 300 302 304 305 305 305 305 304
273 273 273 274 275 276 276 277 277 277 278 278 277 276 277 278 280 279 279 279 279 281 285 287 288 290 292 293 296 298 300 303 304 306 306 307 308 308
Height
5741 5741 5740 5740 5739 5738 5737 5735 5734 5733 5732 5729 5726 5723 5720 5717 5714 5711 5708 5705 5701 5698 5695 5691 5688 5684 5680 5676 5671 5667 5662 5657 5652 5647 5643 5638 5634 5630
5729 5728 5728 5728 5728 5727 5725 5724 5722 5721 5720 5718 5715 5712 5709 5706 5703 5700 5697 5694 5691 5688 5684 5681 5677 5673 5669 5664 5659 5655 5650 5645 5640 5635 5630 5626 5622 5618
5716 5716 5716 5716 5715 5715 5714 5712 5711 5709 5708 5706 5703 5701 5698 5695 5692 5689 5686 5683 5680 5677 5673 5670 5666 5661 5657 5652 5647 5642 5637 5632 5628 5623 5619 5615 5611 5607
5704 5704 5704 5703 5703 5702 5701 5700 5698 5697 5696 5694 5692 5689 5687 5684 5681 5678 5675 5672 5669 5666 5662 5658 5654 5649 5645 5640 5635 5630 5625 5621 5616 5612 5607 5603 5599 5595
5691 5691 5691 5691 5690 5689 5688 5687 5686 5685 5683 5682 5680 5678 5675 5672 5670 5667 5664 5661 5657 5654 5650 5646 5641 5637 5632 5627 5622 5618 5613 5608 5604 5600 5595 5591 5587 5583
5678 5678 5678 5678 5677 5676 5675 5674 5674 5672 5671 5669 5668 5666 5663 5660 5658 5656 5653 5649 5646 5642 5638 5633 5629 5624 5619 5615 5610 5605 5601 5596 5592 5588 5583 5579 5575 5571
5665 5665 5664 5664 5663 5662 5662 5661 5660 5659 5658 5657 5655 5653 5651 5649 5646 5644 5641 5638 5634 5629 5625 5621 5616 5612 5607 5602 5597 5593 5589 5584 5580 5576 5571 5567 5563 5559
5652 5651 5651 5650 5650 5649 5648 5647 5647 5646 5645 5644 5642 5640 5638 5636 5634 5631 5628 5625 5622 5618 5613 5609 5604 5599 5594 5590 5585 5581 5576 5572 5568 5563 5559 5555 5551 5547
5638 5638 5637 5637 5636 5636 5635 5634 5633 5632 5631 5630 5629 5627 5626 5623 5621 5618 5614 5610 5607 5603 5600 5596 5591 5586 5581 5577 5573 5568 5564 5559 5555 5551 5547 5543 5538 5535
5623 5623 5623 5623 5623 5622 5622 5621 5619 5619 5618 5617 5616 5614 5611 5609 5607 5604 5601 5598 5594 5590 5586 5583 5579 5574 5569 5564 5560 5556 5551 5547 5543 5539 5534 5530 5526 5522
5609 5609 5609 5609 5609 5608 5608 5607 5607 5605 5604 5603 5602 5600 5598 5596 5593 5590 5587 5584 5582 5578 5573 5569 5566 5562 5557 5553 5548 5543 5539 5535 5531 5526 5522 5518 5513 5509
5595 5595 5595 5595 5594 5593 5594 5594 5593 5592 5591 5590 5588 5586 5584 5582 5579 5576 5574 5571 5568 5565 5561 5557 5553 5548 5546 5541 5536 5531 5527 5523 5518 5514 5510 5505 5500 5496
5580 5581 5581 5580 5580 5580 5580 5580 5579 5578 5577 5576 5574 5573 5571 5568 5566 5563 5560 5557 5554 5551 5547 5544 5540 5535 5531 5529 5525 5520 5515 5511 5506 5502 5497 5492 5488 5483
5567 5567 5567 5567 5567 5567 5567 5566 5565 5564 5563 5562 5561 5559 5557 5555 5552 5550 5547 5544 5541 5537 5534 5530 5527 5523 5519 5516 5513 5508 5503 5499 5494 5490 5485 5481 5476 5471
5554 5553 5553 5553 5553 5553 5553 5552 5552 5551 5550 5548 5547 5545 5543 5541 5539 5537 5534 5531 5528 5524 5521 5518 5515 5511 5508 5504 5501 5497 5493 5488 5484 5479 5474 5469 5465 5461
5541 5541 5540 5540 5539 5539 5539 5538 5538 5537 5536 5535 5533 5531 5530 5528 5526 5524 5522 5519 5516 5513 5509 5506 5503 5500 5496 5493 5489 5485 5481 5477 5474 5469 5464 5459 5454 5450
5528 5528 5528 5527 5527 5526 5525 5525 5525 5524 5523 5521 5520 5519 5517 5515 5513 5511 5509 5506 5504 5502 5499 5496 5492 5489 5486 5482 5479 5475 5471 5467 5463 5458 5454 5450 5444 5440
5516 5516 5515 5515 5514 5514 5513 5512 5511 5511 5510 5509 5508 5506 5505 5503 5500 5498 5496 5494 5492 5491 5488 5485 5482 5480 5477 5473 5469 5465 5461 5457 5453 5449 5444 5441 5436 5431
5504 5504 5504 5503 5503 5502 5501 5500 5499 5498 5498 5497 5496 5494 5493 5491 5489 5487 5485 5484 5482 5480 5478 5475 5472 5469 5467 5464 5460 5455 5452 5448 5444 5440 5436 5432 5427 5423
5493 5492 5492 5492 5491 5490 5489 5488 5488 5487 5486 5485 5484 5482 5481 5480 5478 5476 5475 5473 5472 5470 5468 5465 5462 5460 5457 5454 5451 5447 5443 5439 5435 5431 5427 5423 5419 5415
5482 5481 5481 5480 5480 5479 5478 5477 5476 5475 5474 5473 5472 5471 5469 5468 5467 5466 5464 5463 5461 5460 5458 5456 5453 5450 5448 5445 5442 5439 5435 5431 5427 5423 5419 5416 5412 5409
5471 5471 5470 5469 5468 5467 5467 5465 5464 5463 5463 5462 5461 5459 5458 5457 5456 5455 5454 5453 5451 5450 5448 5446 5444 5442 5439 5437 5434 5431 5427 5423 5419 5415 5412 5408 5405 5402
5460 5460 5459 5459 5458 5456 5455 5454 5453 5452 5451 5450 5449 5449 5448 5447 5446 5445 5444 5443 5442 5440 5439 5437 5435 5433 5431 5428 5425 5423 5420 5416 5413 5409 5406 5402 5398 5395